Total_Precipitation_Accumulation
0.01 0.08 0.19 0.23 0.29 0.72 0.87 0.64 0.30 0.17 0.12 0.12 0.13 0.10 0.09 0.08 0.13 0.24 0.10 0.03 0.01 0.00 0.00 0.01 0.01 0.02 0.04 0.06 0.07 0.08 0.08 0.05 0.04 0.04 0.05 0.08 0.04 0.02 0.02 0.01 0.02 0.02 0.02 0.03 0.04 0.04 0.03 0.03 0.03
0.01 0.08 0.19 0.21 0.49 1.04 0.94 0.61 0.25 0.15 0.11 0.14 0.17 0.11 0.15 0.11 0.06 0.06 0.06 0.02 0.01 0.00 0.00 0.01 0.01 0.02 0.02 0.04 0.06 0.09 0.09 0.06 0.06 0.08 0.09 0.09 0.06 0.03 0.02 0.02 0.02 0.02 0.02 0.02 0.03 0.03 0.02 0.02 0.01
0.01 0.06 0.16 0.21 0.58 0.78 0.65 0.40 0.15 0.11 0.09 0.11 0.16 0.14 0.15 0.17 0.14 0.09 0.04 0.02 0.01 0.01 0.00 0.01 0.02 0.02 0.02 0.03 0.04 0.09 0.12 0.10 0.09 0.12 0.12 0.10 0.08 0.06 0.04 0.04 0.05 0.04 0.03 0.02 0.03 0.03 0.02 0.01 0.01
0.01 0.03 0.09 0.17 0.39 0.46 0.31 0.21 0.13 0.11 0.09 0.12 0.19 0.23 0.30 0.22 0.18 0.12 0.05 0.02 0.01 0.01 0.00 0.01 0.03 0.04 0.03 0.03 0.03 0.06 0.12 0.12 0.11 0.13 0.15 0.13 0.14 0.15 0.09 0.06 0.07 0.07 0.05 0.04 0.04 0.03 0.02 0.01 0.01
0.00 0.01 0.05 0.12 0.21 0.28 0.23 0.17 0.13 0.11 0.09 0.14 0.24 0.42 0.56 0.36 0.18 0.10 0.06 0.02 0.02 0.03 0.01 0.01 0.04 0.04 0.03 0.03 0.04 0.05 0.07 0.09 0.08 0.09 0.08 0.08 0.10 0.17 0.14 0.10 0.08 0.08 0.06 0.04 0.04 0.03 0.03 0.02 0.02
0.00 0.01 0.02 0.05 0.11 0.16 0.18 0.12 0.10 0.10 0.09 0.19 0.36 0.52 0.50 0.31 0.19 0.13 0.08 0.04 0.03 0.07 0.08 0.03 0.04 0.04 0.03 0.03 0.04 0.06 0.07 0.06 0.05 0.05 0.04 0.04 0.05 0.06 0.09 0.10 0.10 0.08 0.06 0.04 0.04 0.05 0.04 0.04 0.04
0.00 0.00 0.00 0.02 0.04 0.08 0.10 0.07 0.07 0.09 0.15 0.23 0.36 0.60 0.60 0.49 0.39 0.23 0.16 0.10 0.08 0.07 0.13 0.06 0.06 0.06 0.06 0.06 0.06 0.06 0.07 0.07 0.06 0.06 0.05 0.05 0.05 0.06 0.09 0.10 0.11 0.11 0.11 0.08 0.05 0.06 0.06 0.06 0.05
0.00 0.00 0.00 0.00 0.01 0.03 0.03 0.04 0.05 0.08 0.19 0.26 0.33 0.57 0.67 0.50 0.43 0.34 0.29 0.19 0.12 0.08 0.12 0.09 0.11 0.14 0.13 0.10 0.08 0.09 0.10 0.09 0.09 0.08 0.08 0.07 0.07 0.08 0.12 0.13 0.13 0.16 0.18 0.16 0.13 0.11 0.09 0.09 0.07
0.00 0.00 0.00 0.00 0.00 0.01 0.01 0.03 0.06 0.06 0.10 0.22 0.28 0.46 0.49 0.38 0.37 0.33 0.30 0.25 0.19 0.15 0.15 0.13 0.13 0.18 0.21 0.18 0.17 0.16 0.16 0.13 0.12 0.14 0.15 0.14 0.14 0.22 0.33 0.28 0.33 0.34 0.36 0.35 0.32 0.30 0.26 0.22 0.15
0.00 0.00 0.00 0.00 0.00 0.00 0.01 0.02 0.07 0.07 0.18 0.38 0.44 0.46 0.39 0.35 0.38 0.46 0.47 0.38 0.32 0.29 0.23 0.20 0.20 0.19 0.20 0.28 0.44 0.36 0.31 0.31 0.25 0.32 0.39 0.43 0.48 0.47 0.40 0.48 0.63 0.76 0.90 0.84 0.77 0.77 0.60 0.48 0.39
0.00 0.00 0.00 0.00 0.00 0.01 0.04 0.02 0.04 0.06 0.26 0.65 0.78 0.67 0.58 0.47 0.49 0.60 0.71 0.59 0.45 0.38 0.32 0.29 0.33 0.32 0.28 0.30 0.39 0.47 0.46 0.52 0.48 0.50 0.62 0.69 0.69 0.64 0.58 0.65 0.82 0.96 1.13 1.08 1.30 1.39 1.09 1.05 1.03
0.00 0.00 0.00 0.00 0.00 0.02 0.04 0.03 0.06 0.10 0.32 0.59 0.85 0.75 0.74 0.63 0.59 0.68 0.85 0.85 0.75 0.68 0.53 0.49 0.58 0.49 0.44 0.46 0.52 0.52 0.55 0.61 0.61 0.68 0.73 0.89 0.97 0.92 0.91 0.98 1.04 1.15 1.29 1.55 1.53 1.67 1.59 1.45 1.37
0.00 0.00 0.00 0.00 0.00 0.02 0.04 0.09 0.09 0.14 0.23 0.44 0.65 0.61 0.52 0.64 0.83 1.00 1.23 1.14 1.01 1.04 0.97 0.85 0.75 0.72 0.63 0.64 0.70 0.72 0.76 0.79 0.91 1.03 1.07 1.18 1.34 1.31 1.32 1.28 1.33 1.30 1.51 1.78 1.85 1.81 1.97 1.98 1.80
0.00 0.00 0.00 0.00 0.01 0.02 0.04 0.11 0.16 0.25 0.30 0.37 0.55 0.69 0.58 0.72 0.86 1.16 1.58 1.37 1.14 1.26 1.29 1.21 1.13 1.10 1.09 1.08 1.14 1.15 1.17 1.27 1.38 1.38 1.36 1.46 1.59 1.78 1.81 1.67 1.61 1.52 1.57 1.77 1.92 1.98 2.40 2.27 2.15
0.00 0.00 0.01 0.02 0.02 0.06 0.09 0.21 0.31 0.34 0.32 0.38 0.56 0.75 0.88 0.89 0.96 1.00 1.12 1.27 1.36 1.39 1.40 1.40 1.45 1.55 1.66 1.62 1.55 1.54 1.56 1.58 1.62 1.63 1.70 1.73 1.74 1.94 2.00 1.97 1.84 1.83 1.81 1.92 1.93 2.13 2.39 2.13 2.02
0.00 0.01 0.02 0.04 0.03 0.07 0.12 0.35 0.32 0.30 0.33 0.57 0.71 0.96 1.08 0.99 0.98 0.99 1.09 1.34 1.53 1.55 1.63 1.74 1.75 1.87 1.97 1.96 1.92 1.90 1.83 1.72 1.61 1.65 1.77 1.79 1.84 2.04 2.12 1.94 1.84 2.09 2.14 2.17 2.22 2.30 2.32 2.22 2.14
0.02 0.02 0.05 0.07 0.07 0.07 0.14 0.28 0.36 0.36 0.49 0.68 0.87 1.05 1.19 1.28 1.43 1.55 1.48 1.52 1.79 1.99 2.14 2.29 2.30 2.24 2.18 2.21 2.25 2.30 2.22 1.99 1.80 1.80 1.84 1.89 1.84 1.92 2.05 1.87 1.93 2.17 2.25 2.22 2.07 2.36 2.34 2.28 2.18
0.02 0.03 0.08 0.10 0.09 0.10 0.19 0.29 0.34 0.39 0.56 0.82 1.13 1.28 1.40 1.72 2.03 2.05 2.01 2.09 2.13 2.20 2.41 2.46 2.51 2.67 2.77 2.74 2.58 2.55 2.36 2.13 2.06 2.06 2.07 2.01 1.92 1.95 2.08 1.95 2.03 2.20 2.27 2.21 2.22 2.33 2.36 2.22 2.17
0.04 0.05 0.09 0.12 0.11 0.13 0.29 0.45 0.44 0.53 0.76 0.90 1.10 1.32 1.50 1.68 1.91 2.03 1.97 2.10 2.19 2.40 2.56 2.72 3.20 3.34 3.23 3.00 2.68 2.50 2.39 2.34 2.23 2.08 1.92 1.89 1.90 2.00 2.18 2.06 2.20 2.22 2.07 2.06 2.23 2.35 2.21 2.01 2.19
0.05 0.08 0.11 0.13 0.10 0.12 0.25 0.42 0.48 0.71 0.98 0.99 0.97 1.06 1.20 1.51 1.71 1.84 1.85 1.80 2.04 2.44 2.66 2.67 2.60 2.71 2.75 2.68 2.58 2.56 2.60 2.37 2.16 2.04 1.87 1.75 1.79 1.87 1.89 1.93 1.92 1.97 2.00 2.00 2.07 2.24 2.06 1.74 1.97
0.04 0.05 0.09 0.14 0.13 0.16 0.24 0.50 0.64 0.81 0.92 0.98 1.04 1.07 1.18 1.42 1.59 1.67 1.66 1.60 1.69 1.81 1.94 1.99 2.01 1.92 1.90 1.96 2.11 2.19 2.25 2.06 1.89 1.83 1.76 1.64 1.59 1.55 1.57 1.59 1.73 1.95 2.04 1.98 2.02 2.05 1.93 1.63 1.66
0.05 0.05 0.04 0.06 0.13 0.22 0.30 0.75 0.95 0.88 0.91 1.05 1.04 1.04 1.24 1.48 1.38 1.36 1.39 1.37 1.40 1.44 1.50 1.50 1.53 1.54 1.55 1.65 1.75 1.76 1.75 1.66 1.63 1.64 1.55 1.50 1.44 1.41 1.38 1.40 1.46 1.53 1.62 1.64 1.58 1.70 1.81 1.76 1.58
0.04 0.04 0.04 0.07 0.16 0.24 0.30 0.61 0.92 1.11 1.16 1.02 0.97 0.91 1.08 1.17 1.02 0.98 1.03 1.00 1.03 1.02 1.12 1.20 1.30 1.31 1.32 1.35 1.39 1.43 1.41 1.41 1.43 1.37 1.30 1.24 1.21 1.27 1.27 1.22 1.20 1.17 1.23 1.36 1.39 1.50 1.54 1.59 1.57
0.03 0.05 0.10 0.19 0.35 0.53 0.44 0.54 0.88 1.15 1.26 1.02 0.93 0.87 0.93 0.91 0.86 0.90 0.90 0.84 0.85 0.91 1.00 1.08 1.15 1.18 1.19 1.19 1.20 1.20 1.20 1.20 1.19 1.16 1.17 1.13 1.09 1.03 1.02 1.05 1.07 1.05 1.10 1.20 1.29 1.36 1.32 1.41 1.47
0.04 0.11 0.38 0.64 0.85 0.84 0.55 0.62 0.95 0.96 0.95 0.88 0.84 0.90 0.93 0.83 0.74 0.70 0.71 0.72 0.78 0.81 0.82 0.82 0.87 0.93 0.88 0.86 0.91 0.92 0.92 0.91 0.93 0.92 0.89 0.83 0.75 0.74 0.77 0.77 0.86 0.91 1.00 1.04 1.04 1.13 1.23 1.37 1.44
0.08 0.13 0.43 0.59 0.59 0.66 0.56 0.80 1.16 0.94 0.86 0.78 0.78 0.87 0.84 0.69 0.59 0.56 0.54 0.55 0.59 0.59 0.56 0.57 0.63 0.71 0.74 0.72 0.72 0.64 0.59 0.58 0.57 0.66 0.66 0.61 0.57 0.56 0.61 0.70 0.83 0.92 0.96 0.96 0.99 0.99 1.06 1.21 1.35
0.13 0.16 0.21 0.39 0.39 0.49 0.60 0.83 1.01 0.83 0.78 0.81 0.89 0.93 0.84 0.64 0.49 0.43 0.41 0.39 0.38 0.38 0.41 0.47 0.53 0.58 0.63 0.61 0.57 0.52 0.47 0.43 0.43 0.47 0.53 0.54 0.58 0.54 0.57 0.66 0.77 0.90 1.01 1.04 1.03 1.03 1.13 1.27 1.35
0.12 0.12 0.15 0.31 0.39 0.48 0.54 0.80 0.99 1.02 0.97 0.88 0.92 0.80 0.58 0.44 0.34 0.30 0.26 0.24 0.25 0.26 0.31 0.38 0.42 0.42 0.44 0.44 0.43 0.38 0.36 0.37 0.39 0.40 0.42 0.44 0.47 0.50 0.55 0.62 0.70 0.72 0.79 0.85 0.86 0.94 1.06 1.22 1.28
0.14 0.17 0.24 0.33 0.33 0.46 0.60 0.69 0.66 0.71 0.80 0.85 0.79 0.61 0.40 0.29 0.21 0.20 0.20 0.21 0.22 0.21 0.25 0.33 0.39 0.42 0.43 0.42 0.41 0.35 0.30 0.29 0.30 0.31 0.33 0.39 0.41 0.44 0.49 0.54 0.55 0.56 0.56 0.59 0.65 0.76 0.90 0.98 0.99
0.11 0.14 0.23 0.35 0.32 0.35 0.47 0.51 0.33 0.34 0.42 0.46 0.42 0.34 0.27 0.22 0.19 0.21 0.23 0.23 0.22 0.23 0.27 0.34 0.39 0.44 0.48 0.50 0.51 0.46 0.40 0.36 0.34 0.32 0.30 0.31 0.35 0.38 0.42 0.44 0.45 0.45 0.47 0.54 0.60 0.68 0.76 0.84 0.83